sat.trackr.live / text

‹ back to catalog

STARLINK-35197

NORAD 66193 · 2025-243S

PAYLOAD ACTIVE UNKNOWN

§ Identity

Operator
Country
US
Launch date
2025-10-26
Launch site
AFETR
Launch vehicle
Mass (kg)
RCS (m²)

Purposes: comms

External: N2YO · Heavens-Above · Gunter

§ Orbital elements

Epoch: 2026-09-20T16:52:21.175104Z

Period
93.85 min
Inclination
53.1574°
Eccentricity
0.0001627
Mean motion
15.34415891 rev/d
Perigee alt
461.5 km
Apogee alt
463.8 km
Semi-major
6,840.8 km
B*
7.8500e-4
RAAN
58.5557°
Arg perigee
90.4254°
Mean anomaly
269.6935°
Rev number
5,052

§ Raw data

STARLINK-351971 66193U 25243S   26263.70302286  .00026253  00000+0  78500-3 0  99982 66193  53.1574  58.5557 0001627  90.4254 269.6935 15.34415891 50520

JSON: /api/v1/satellites/66193 · /tle

For live sub-satellite position, see the globe view (requires WebGL).

§ Visibility from observer

Set your observer location to see the next 7 days of passes ≥ 10°. The values pass through the URL so the page stays shareable.

No JS? Fill the form by hand. The geolocation button needs JavaScript.